Flag for Germany Weather past 2 weeks in Bietigheim-Bissingen, Baden-Württemberg, Germany

Now
36 °F

Passing clouds.


Feels Like: 34 °F
Forecast: 35 / 42 °F
Wind: 3 mph from Southwest

Location: Stuttgart-Echterdingen

Current Time: Mar 4, 2015 at 9:30:02 PM

Latest Report: Mar 4, 2015 at 9:00 PM


Visibility: 31 mi

Pressure: 30.45 "Hg

Humidity: 68%

Dew point: 27 °F

Location of Bietigheim-BissingenLocation

Historic Weather in Bietigheim-Bissingen — Graph

°F

Bietigheim-Bissingen temperature yesterday

Maximum temperature yesterday: 50 °F (at 3:00 PM)
Minimum temperature yesterday: 35 °F (at 6:00 AM)
Average temperature yesterday: 42 °F

Past Weeks' High & Low Weather Summary

 TemperatureHumidityPressure
High55 °F (Feb 20, 3:00 PM)97% (Feb 20, 5:00 AM)30.78 "Hg (Feb 20, 5:00 AM)
Low24 °F (Feb 20, 5:00 AM)38% (Feb 20, 4:00 PM)29.55 "Hg (Feb 23, 5:00 PM)
Average38 °F77%30.06 "Hg
* Reported Feb 17 8:00 PM — Mar 4 8:00 PM, Bietigheim-Bissingen, Weather by CustomWeather, © 2015

Note: Actual official high and low records may vary slightly from our data, if they occured in-between our weather recording intervals... More about our weather records

Advertising

Bietigheim-Bissingen weather history for previous 24 hours

 ConditionsComfort  
Time TempWeatherWind HumidityBarometerVisibility
8:00 PM
Wed, Mar 4
38 °FOvercast.3 mph65%30.42 "Hg31 mi
7:00 PM37 °FPassing clouds.3 mph64%30.41 "Hg31 mi
6:00 PM41 °FPartly sunny.6 mph53%30.38 "Hg37 mi
5:00 PM42 °FOvercast.7 mph50%30.36 "Hg37 mi
4:00 PM43 °FOvercast.9 mph46%30.34 "Hg43 mi
3:00 PM44 °FOvercast.6 mph41%30.32 "Hg43 mi
2:00 PM44 °FPartly sunny.7 mph38%30.33 "Hg43 mi
1:00 PM45 °FPartly sunny.6 mph47%30.34 "Hg43 mi
12:00 PM42 °FPartly sunny.6 mph54%30.34 "Hg40 mi
11:00 AM42 °FOvercast.5 mph59%30.34 "Hg40 mi
9:00 AM38 °FOvercast.2 mph76%30.34 "Hg34 mi
8:00 AM35 °FOvercast.2 mph81%30.33 "Hg37 mi
7:00 AM36 °FOvercast.7 mph75%30.30 "Hg37 mi
6:00 AM37 °FOvercast.6 mph77%30.29 "Hg37 mi
5:00 AM38 °FOvercast.3 mph81%30.27 "Hg31 mi
3:00 AM38 °FOvercast.3 mph79%30.24 "Hg31 mi
2:00 AM38 °FSprinkles. Overcast.8 mph79%30.23 "Hg31 mi
1:00 AM39 °FSprinkles. Overcast.8 mph84%30.21 "Hg31 mi
12:00 AM43 °FPassing clouds.6 mph61%30.15 "Hg31 mi
11:00 PM
Tue, Mar 3
44 °FPassing clouds.3 mph59%30.14 "Hg31 mi
9:00 PM45 °FCool.5 mph56%30.14 "HgN/A
Weather by CustomWeather, © 2015

See weather overviewHow to use our weather pages